Weather History for Arlington, WA

Change the Weather History Date:

Tuesday, April 23, 2013

  Actual Average Record
Temperature  
Mean Temperature 52 °F -  
Max Temperature 60 °F 79 °F 79 °F (1977)
Min Temperature 41 °F 46 °F 30 °F (2006)
Degree Days  
Heating Degree Days 13    
Growing Degree Days 2 (Base 50)    
Moisture  
Dew Point 37 °F    
Average Humidity 54    
Maximum Humidity 81    
Minimum Humidity 31    
Precipitation  
Precipitation 0.00 in - - ()
Sea Level Pressure  
Sea Level Pressure 30.31 in    
Wind  
Wind Speed 6 mph (NW)    
Max Wind Speed 15 mph    
Max Gust Speed 21 mph    
Visibility 10 miles    
Events      
Averages and records for this station are not official NWS values.
T = Trace of Precipitation, MM = Missing Value Source: NWS Daily Summary

Daily Weather History Graph

Daily Weather History Graph

Search for Another Location

Airport:

Trip Planner

Search our weather history database for the weather conditions in past years. The results will help you decide how hot, cold, wet, or windy it might be!

Date:

Astronomy

Apr. 23, 2013 Rise Set
Actual Time 6:03 AM PDT 8:11 PM PDT
Civil Twilight 5:29 AM PDT 8:45 PM PDT
Nautical Twilight 4:47 AM PDT 9:27 PM PDT
Astronomical Twilight 4:00 AM PDT 10:14 PM PDT
Moon 6:05 PM PDT (4/23) 4:44 AM PDT (4/23)
Length of Visible Light 15h 15m
Length of Day
14h 08m
Waxing Gibbous, 94% of the Moon is Illuminated
Apr 23
Waxing Gibbous
Apr 25
Full
May 2
Last Quarter
May 9
New
May 17
First Quarter

Hourly Weather History & Observations

Time (PDT) Temp. Windchill Dew Point Humidity Pressure Visibility Wind Dir Wind Speed Gust Speed Precip Events Conditions
9:35 AM - - - N/A% 30.35 in 10.0 mi Calm Calm - N/A   Unknown
9:55 AM 48.2 °F - 37.4 °F 66% 30.35 in 10.0 mi North 4.6 mph - N/A   Mostly Cloudy
10:35 AM 48.2 °F - 37.4 °F 66% 30.35 in 10.0 mi Calm Calm - N/A   Unknown
10:55 AM 50.0 °F - 39.2 °F 66% 30.35 in 10.0 mi Calm Calm - N/A   Overcast
11:15 AM 51.8 °F - 37.4 °F 58% 30.35 in 10.0 mi Calm Calm - N/A   Overcast
11:35 AM 53.6 °F - 37.4 °F 54% 30.34 in 10.0 mi Calm Calm - N/A   Overcast
11:55 AM 53.6 °F - 37.4 °F 54% 30.35 in 10.0 mi Calm Calm - N/A   Overcast
12:15 PM 55.4 °F - 37.4 °F 51% 30.34 in 10.0 mi Calm Calm - N/A   Overcast
12:35 PM 55.4 °F - 37.4 °F 51% 30.34 in 10.0 mi NW 6.9 mph - N/A   Mostly Cloudy
12:55 PM 55.4 °F - 42.8 °F 63% 30.33 in 10.0 mi NW 8.1 mph - N/A   Partly Cloudy
1:15 PM 57.2 °F - 33.8 °F 41% 30.32 in 10.0 mi West 5.8 mph - N/A   Clear
1:35 PM 57.2 °F - 35.6 °F 44% 30.31 in 10.0 mi West 8.1 mph - N/A   Clear
1:55 PM 59.0 °F - 33.8 °F 39% 30.31 in 10.0 mi West 6.9 mph - N/A   Clear
2:15 PM 59.0 °F - 32.0 °F 36% 30.31 in 10.0 mi NW 13.8 mph - N/A   Clear
2:35 PM 60.8 °F - 35.6 °F 39% 30.31 in 10.0 mi West 13.8 mph - N/A   Clear
2:55 PM 60.8 °F - 30.2 °F 31% 30.30 in 10.0 mi WNW 13.8 mph 19.6 mph N/A   Clear
3:15 PM 59.0 °F - 30.2 °F 34% 30.30 in 10.0 mi NW 15.0 mph 20.7 mph N/A   Clear
3:35 PM 60.8 °F - 33.8 °F 36% 30.29 in 10.0 mi NW 12.7 mph - N/A   Clear
3:55 PM 59.0 °F - 32.0 °F 36% 30.29 in 10.0 mi WNW 11.5 mph - N/A   Clear
4:15 PM 60.8 °F - 33.8 °F 36% 30.28 in 10.0 mi NW 11.5 mph - N/A   Clear
4:35 PM 59.0 °F - 35.6 °F 42% 30.28 in 10.0 mi NW 12.7 mph - N/A   Clear
4:55 PM 59.0 °F - 37.4 °F 45% 30.28 in 10.0 mi NW 13.8 mph - N/A   Clear
5:15 PM 59.0 °F - 37.4 °F 45% 30.28 in 10.0 mi WNW 11.5 mph - N/A   Clear
5:35 PM 59.0 °F - 39.2 °F 48% 30.28 in 10.0 mi WNW 11.5 mph - N/A   Clear
5:55 PM 59.0 °F - 39.2 °F 48% 30.27 in 10.0 mi NW 10.4 mph - N/A   Clear
6:15 PM 59.0 °F - 39.2 °F 48% 30.27 in 10.0 mi WNW 10.4 mph - N/A   Clear
6:35 PM 57.2 °F - 37.4 °F 48% 30.27 in 10.0 mi WNW 12.7 mph - N/A   Clear
6:55 PM 57.2 °F - 37.4 °F 48% 30.27 in 10.0 mi NW 13.8 mph - N/A   Clear
7:15 PM 55.4 °F - 39.2 °F 54% 30.27 in 10.0 mi NW 11.5 mph - N/A   Clear
7:35 PM 53.6 °F - 39.2 °F 58% 30.27 in 10.0 mi NW 8.1 mph - N/A   Clear
7:55 PM 53.6 °F - 39.2 °F 58% 30.27 in 10.0 mi NW 8.1 mph - N/A   Clear
8:15 PM 51.8 °F - 37.4 °F 58% 30.28 in 10.0 mi NW 8.1 mph - N/A   Clear
8:35 PM 50.0 °F - 37.4 °F 62% 30.29 in 10.0 mi NW 5.8 mph - N/A   Clear
8:55 PM 48.2 °F - 35.6 °F 62% 30.29 in 10.0 mi NW 10.4 mph - N/A   Clear
9:15 PM 48.2 °F - 37.4 °F 66% 30.30 in 10.0 mi NW 5.8 mph - N/A   Clear
9:35 PM 48.2 °F - 37.4 °F 66% 30.30 in 10.0 mi NW 6.9 mph - N/A   Clear
9:55 PM 46.4 °F 42.9 °F 37.4 °F 71% 30.31 in 10.0 mi NW 6.9 mph - N/A   Clear
10:15 PM 46.4 °F 45.2 °F 37.4 °F 71% 30.31 in 10.0 mi NNE 3.5 mph - N/A   Clear
10:35 PM 48.2 °F - 37.4 °F 66% 30.32 in 10.0 mi North 3.5 mph - N/A   Clear
10:55 PM 46.4 °F 45.2 °F 37.4 °F 71% 30.32 in 10.0 mi North 3.5 mph - N/A   Clear
11:15 PM 44.6 °F 43.1 °F 35.6 °F 71% 30.32 in 10.0 mi NNW 3.5 mph - N/A   Clear
11:35 PM 44.6 °F - 37.4 °F 76% 30.32 in 10.0 mi Calm Calm - N/A   Clear
11:55 PM 41.0 °F - 35.6 °F 81% 30.33 in 10.0 mi Calm Calm - N/A   Clear